{"data":{"norad_id":54837,"intl_designator":"2022-177T","name":"STARLINK-5369","alt_names":[],"object_type":"PAYLOAD","status":"ACTIVE","operator":null,"country":"US","launch_date":"2022-12-28","launch_site_code":"AFETR","launch_vehicle":null,"mission":null,"orbit_class":"UNKNOWN","rcs_meters":null,"size_class":null,"mass_kg":null,"dimensions":null,"purposes":["comms"],"wikipedia_slug":null,"has_3d_model":false,"image_url":null,"decayed_at":null,"tle_current":{"epoch":"2026-05-26T02:13:32.903616Z","epoch_age_seconds":10237306,"freshness":"OLD","line1":"1 54837U 22177T   26146.09274194  .07267415  93102-5  47067-3 0  9990","line2":"2 54837  42.9869  34.7937 0008486 265.2687  94.7237 16.40586181189035","mean_motion":16.40586181,"eccentricity":0.0008486,"inclination_deg":42.9869,"raan_deg":34.7937,"arg_perigee_deg":265.2687,"mean_anomaly_deg":94.7237,"bstar":0.00047067,"rev_number":18903,"period_min":87.773505389535,"perigee_km":158.69178395751,"apogee_km":169.7955123936,"semimajor_km":6542.3806481756,"source":"CELESTRAK","updated_at":"2026-05-26T09:01:09.846500Z"}}}